TimeEST,TemperatureF,Dew PointF,Humidity,Sea Level PressureIn,VisibilityMPH,Wind Direction,Wind SpeedMPH,Gust SpeedMPH,PrecipitationIn,Events,Conditions,WindDirDegrees,DateUTC
12:53 AM,24.1,19.0,81,30.10,10.0,Calm,Calm,-,N/A,,Clear,0,2013-03-04 05:53:00
1:53 AM,25.0,19.9,81,30.12,10.0,Calm,Calm,-,N/A,,Clear,0,2013-03-04 06:53:00
2:53 AM,25.0,19.0,78,30.12,10.0,Calm,Calm,-,N/A,,Clear,0,2013-03-04 07:53:00
3:53 AM,21.9,18.0,85,30.12,10.0,North,-9999.0,-,N/A,,Clear,0,2013-03-04 08:53:00
4:53 AM,21.9,18.0,85,30.12,7.0,Calm,Calm,-,N/A,,Clear,0,2013-03-04 09:53:00
5:53 AM,21.0,17.1,85,30.14,7.0,Calm,Calm,-,N/A,,Clear,0,2013-03-04 10:53:00
6:53 AM,21.0,17.1,85,30.14,7.0,ESE,4.6,-,N/A,,Clear,110,2013-03-04 11:53:00
7:53 AM,24.1,19.0,81,30.13,7.0,ESE,5.8,-,N/A,,Clear,110,2013-03-04 12:53:00
8:53 AM,28.0,19.9,72,30.14,10.0,SSE,6.9,-,N/A,,Clear,150,2013-03-04 13:53:00
9:53 AM,33.1,21.9,64,30.13,10.0,SSE,8.1,-,N/A,,Clear,160,2013-03-04 14:53:00
10:53 AM,34.0,21.0,59,30.12,10.0,SSE,9.2,-,N/A,,Clear,160,2013-03-04 15:53:00
11:53 AM,36.0,21.9,57,30.10,10.0,SSE,8.1,-,N/A,,Clear,160,2013-03-04 16:53:00
12:53 PM,39.0,21.9,50,30.08,10.0,South,9.2,-,N/A,,Clear,170,2013-03-04 17:53:00
1:53 PM,39.9,21.9,49,30.05,10.0,SE,10.4,-,N/A,,Overcast,130,2013-03-04 18:53:00
2:53 PM,39.9,21.9,49,30.02,10.0,SE,9.2,-,N/A,,Overcast,130,2013-03-04 19:53:00
3:53 PM,39.0,23.0,53,30.02,10.0,ESE,8.1,-,0.00,,Overcast,120,2013-03-04 20:53:00
4:53 PM,39.0,25.0,57,29.99,10.0,ESE,8.1,-,0.00,,Overcast,110,2013-03-04 21:53:00
5:53 PM,37.9,25.0,60,29.99,10.0,East,9.2,-,N/A,,Overcast,100,2013-03-04 22:53:00
6:53 PM,37.9,25.0,60,29.96,10.0,East,9.2,-,N/A,,Overcast,90,2013-03-04 23:53:00
7:53 PM,37.0,26.1,65,29.98,10.0,East,9.2,-,N/A,,Overcast,100,2013-03-05 00:53:00
8:53 PM,37.0,26.1,65,29.99,10.0,East,6.9,-,N/A,,Overcast,90,2013-03-05 01:53:00
9:53 PM,37.0,27.0,67,30.00,10.0,East,6.9,-,N/A,,Overcast,80,2013-03-05 02:53:00
10:53 PM,37.0,27.0,67,29.99,10.0,ENE,5.8,-,N/A,,Overcast,70,2013-03-05 03:53:00
11:53 PM,37.0,27.0,67,29.96,10.0,East,9.2,-,0.00,,Overcast,80,2013-03-05 04:53:00